Tracking 19177 objects as of 24-May-2018
HD Live streaming from Space Station
objects crossing your sky now

COSMOS 1174

Track COSMOS 1174 now!
10-day predictions
COSMOS 1174 is classified as:


NORAD ID: 11765
Int'l Code: 1980-030A
Perigee: 382.8 km
Apogee: 1,155.6 km
Inclination: 66.1 °
Period: 100.1 minutes
Semi major axis: 7140 km
RCS: 4.5129 m2 (large)
Launch date: April 18, 1980
Source: Commonwealth of Independent States (former USSR) (CIS)
Launch site: TYURATAM MISSILE AND SPACE COMPLEX (TTMTR)
aabbcc
Your satellite tracking list
Your tracking list is empty




NASA's NSSDC Master Catalog

Two Line Element Set (TLE):
1 11765U 80030A   18143.94272885 +.00000296 +00000-0 +26668-4 0  9992
2 11765 066.0878 079.0703 0541175 106.7711 259.3469 14.38911170953335
Source of the keplerian elements: AFSPC